STARLINK-1631, 46151

Orbit data source: Space-Track

STARLINK-1631, 46151 is a payload satellite owned by SpaceX/Seattle (US) in LEO that was launched on Tue, 18 Aug 2020 UTC via an FALCON 9 launch vehicle from the Air Force Eastern Test Range (AFETR). Payloads include a variety of satellites, spacecraft, and rockets equipped with specific instruments for various scientific and technological missions. These include communications satellites like Starlink; space stations such as the ISS; scientific satellites like the Hubble; Earth observation satellites from companies like Planet Labs, Umbra, and HawkEye 360; GPS; miniature CubeSats for education and research; and military/defense satellites.

Loading next visibility...
STARLINK-1631 details
Identifier
46151, 2020-057AL
Orbit
LEO
Last TLE update13 hours ago
Origin
Flag of USSpaceX/Seattle (US)
ManufacturerSpaceX/Seattle
MissionOperational Commercial Communications
Bus & MotorSTARLINK, Unknown motor
Mass260 kg wet, ~248 kg dry
Launch date (UTC)
2020-08-18 (4 years ago)
Launch vehicle
FALCON 9
Launch site
Air Force Eastern Test Range (AFETR)
Object type
Payload
Rocket body
Debris
Shape & HBRBox + 1 Pan, 8.86 m
Radar Cross Section13.562 m², Large (>1 m²)

Expand to show TLE details & history

TLE from 13 hours ago
0 STARLINK-1631
1 46151U 20057AL  24361.00906953  .00023948  00000-0  16210-2 0  9997
2 46151  53.0532 105.9310 0001681  91.0043 269.1139 15.06403260240227
Epoch: 2024-12-26T00:13Z
Definitive object data (Epoch: 2024-12-26T00:13:03.607Z)
Latitude0.00002°
Longitude7.67136°
Altitude548.099 km
Speed7.589 km/s
True Right ascension07h 03m 43s
True Declination0° 00' 00"
Sunlit
Object was in full shadow at TLE epoch
Visualization TLE readout
Latitude36.82265°
Longitude39.30508°
Altitude549.215 km
Speed7.593 km/s
Apparent Right ascension05h 21m 17s
Apparent Declination0° 45' 57"
Sunlit
Object is in full shadow
Visualization observer readout
Local Sidereal Time12:31:49
Azimuth282.117° WNW
Elevation-12.928°
Doppler factor1
Orbital elements
Apogee altitude548.637 km
Perigee altitude546.308 km
Semi-major axis6,925.609 km
Eccentricity0.0001681
Inclination53.0532°
RAAN105.931°
Arg. of periapsis91.0043°
True anomaly269.09464°
Mean anomaly269.1139°
Eccentric anomaly269.10427°
Mean motion3.76579 °/min
BSTAR0.001621
Orbital period95.6 mins
Loading maneuver chart data...
Loading historical data...
Loading historical data...
Loading historical data...
Loading historical data...
Loading historical data...
Loading historical data...
Loading historical data...

STARLINK-1631 Visibility forecast

Observer location: undefined°, undefined

Span
Click to sort rows by Start time (UTC) header in descending order
Start Az.
Max El. time (UTC)
Max El. Az.
Max El.
End time (UTC)
End Az.
4 mins2024-12-26 15:00:11.016Z355.367° N2024-12-26 15:01:11.016Z14.009° NNE17.946°2024-12-26 15:04:11.016Z63.505° ENE
6 mins2024-12-26 16:39:11.016Z317.278° NNW2024-12-26 16:41:11.016Z355.825° N42.594°2024-12-26 16:45:11.016Z122.886° SE
6 mins2024-12-27 09:51:11.016Z233.513° WSW2024-12-27 09:53:11.016Z248.624° W42.975°2024-12-27 09:57:11.016Z48.604° ENE
4 mins2024-12-27 11:32:11.016Z310.704° NW2024-12-27 11:33:11.016Z329.31° NNW18.762°2024-12-27 11:36:11.016Z22.381° NNE
|